Location: Kellogg
(38.0159°N, 90.0546°W)
Time: 22:42:16
(UTC+00:00)

Vanguard 1 - Pass Details

Date: 19 September 2024
Orbit: 648 x 3825 km, 34.3° (Epoch: 12 October)

Event Time Altitude Azimuth Distance (km) Brightness Sun altitude
Rises 21:15:54 0° 276° (W) 5,123 14.5 30.8°
Reaches altitude 10° 21:20:03 10° 272° (W) 3,627 14.1 30.0°
Maximum altitude 21:28:01 49° 200° (SSW) 1,228 11.5 28.6°
Drops below altitude 10° 21:32:57 10° 125° (SE) 2,274 11.7 27.7°
Sets 21:35:01 0° 119° (ESE) 3,065 12.3 27.3°
